{"data":{"norad_id":56368,"epoch":"2026-09-19T08:32:42.212832Z","epoch_age_seconds":113209,"freshness":"FRESH","line1":"1 56368U 23059B   26262.35604413 -.00000027  00000+0  00000+0 0  9999","line2":"2 56368   0.0600 341.5465 0006404 190.2261 188.2401  5.00115558 59445","mean_motion":5.00115558,"eccentricity":0.0006404,"inclination_deg":0.06,"raan_deg":341.5465,"arg_perigee_deg":190.2261,"mean_anomaly_deg":188.2401,"bstar":0,"rev_number":5944,"period_min":287.93345397185,"perigee_km":8056.639147226,"apogee_km":8075.1390558568,"semimajor_km":14444.026101541,"source":"CELESTRAK","updated_at":"2026-09-20T09:00:35.689479Z"}}